Tracking 29892 objects as of 21-Nov-2024
HD Live streaming from Space Station
objects crossing your sky now

KEPLER-4 (ANTILLES)

Track KEPLER-4 (ANTILLES) now!
10-day predictions


NORAD ID: 46499
Int'l Code: 2020-068P
Perigee: 429.7 km
Apogee: 442.1 km
Inclination: 97.8 °
Period: 93.2 minutes
Semi major axis: 6806 km
RCS: Unknown
Launch date: September 28, 2020
Source: Canada (CA)
Launch site: PLESETSK MISSILE AND SPACE COMPLEX (PKMTR)
Your satellite tracking list
Your tracking list is empty




NASA's NSSDC Master Catalog

Two Line Element Set (TLE):
1 46499U 20068P   24325.88175973  .00046947  00000-0  96198-3 0  9998
2 46499  97.8092 300.6118 0009109 106.2618 253.9633 15.45893117228772
Source of the keplerian elements: AFSPC